Air Quality Table

TIMESTAMP NO2 SO2 O3 PM10 PM2.5 CO TEMP HUM WS WD NO
2022-01-24 17:00 2.17 µg/m3 0.53 µg/m3 86.54 µg/m3 3.36 µg/m3 N/A 0.18 mg/m3 11.25 °C 65.33 % 5.2 m/s 300.37 Deg 0.05 µg/m3
2022-01-24 16:00 1.36 µg/m3 0.45 µg/m3 86.59 µg/m3 4.14 µg/m3 N/A 0.18 mg/m3 11.4 °C 66.52 % 6.08 m/s 257.26 Deg 0.07 µg/m3
2022-01-24 15:00 1.12 µg/m3 0.42 µg/m3 87.59 µg/m3 2.56 µg/m3 N/A 0.17 mg/m3 11.56 °C 66.94 % 5.92 m/s 237.24 Deg 0.08 µg/m3
2022-01-24 14:00 10.09 µg/m3 0.48 µg/m3 87.22 µg/m3 2.8 µg/m3 N/A 0.17 mg/m3 11.59 °C 68 % 5.88 m/s 214.41 Deg 1.97 µg/m3
2022-01-24 13:00 1.21 µg/m3 0.53 µg/m3 88.98 µg/m3 2.57 µg/m3 N/A 0.17 mg/m3 12.01 °C 66.82 % 5.87 m/s 229.41 Deg 0.14 µg/m3
2022-01-24 12:00 1.58 µg/m3 0.59 µg/m3 87.17 µg/m3 2.22 µg/m3 N/A 0.18 mg/m3 11.87 °C 63.78 % 6.18 m/s 181.08 Deg 0.24 µg/m3
2022-01-24 11:00 0.91 µg/m3 0.56 µg/m3 84.07 µg/m3 4.07 µg/m3 N/A 0.17 mg/m3 11.79 °C 60.63 % 6.14 m/s 261.21 Deg 0.11 µg/m3
2022-01-24 10:00 1.01 µg/m3 0.62 µg/m3 83.93 µg/m3 2.7 µg/m3 N/A 0.18 mg/m3 11.54 °C 61.78 % 6.14 m/s 206.65 Deg 0.11 µg/m3
2022-01-24 09:00 1.24 µg/m3 0.7 µg/m3 81.07 µg/m3 1.79 µg/m3 N/A 0.18 mg/m3 10.86 °C 62.79 % 4.95 m/s 266.88 Deg 0.11 µg/m3
2022-01-24 08:00 3.95 µg/m3 0.93 µg/m3 79.03 µg/m3 2.57 µg/m3 N/A 0.17 mg/m3 10.43 °C 59.86 % 4.45 m/s 286.79 Deg 0.09 µg/m3
2022-01-24 07:00 1.65 µg/m3 1.06 µg/m3 83.64 µg/m3 4.11 µg/m3 N/A 0.18 mg/m3 10.29 °C 61.31 % 3.72 m/s 287.3 Deg 0.03 µg/m3
2022-01-24 06:00 3.99 µg/m3 1.5 µg/m3 81.66 µg/m3 4.66 µg/m3 N/A 0.18 mg/m3 10.27 °C 62.92 % 3.41 m/s 310.33 Deg 0.02 µg/m3
2022-01-24 05:00 2.33 µg/m3 1.27 µg/m3 82.83 µg/m3 4.29 µg/m3 N/A 0.18 mg/m3 10.14 °C 61.69 % 3.58 m/s 229.66 Deg 0.04 µg/m3
2022-01-24 04:00 2.48 µg/m3 1.37 µg/m3 79.76 µg/m3 4.07 µg/m3 N/A 0.14 mg/m3 9.78 °C 64.59 % 2.74 m/s 249.67 Deg 0.04 µg/m3
2022-01-24 03:00 2.87 µg/m3 1.3 µg/m3 80.99 µg/m3 3.12 µg/m3 N/A 0.18 mg/m3 9.75 °C 65.32 % 3.75 m/s 100.01 Deg 0.06 µg/m3
2022-01-24 02:00 2.1 µg/m3 0.86 µg/m3 83.02 µg/m3 2.37 µg/m3 N/A 0.18 mg/m3 9.67 °C 70.08 % 3.22 m/s 132.68 Deg 0.04 µg/m3
2022-01-24 01:00 2.26 µg/m3 0.73 µg/m3 86.07 µg/m3 2.7 µg/m3 N/A 0.18 mg/m3 9.8 °C 71.16 % 3.4 m/s 123.95 Deg 0.04 µg/m3
2022-01-24 00:00 3.38 µg/m3 0.68 µg/m3 86.2 µg/m3 3.82 µg/m3 N/A 0.18 mg/m3 10.32 °C 69.25 % 4.12 m/s 193.13 Deg 0.04 µg/m3
2022-01-23 23:00 2.73 µg/m3 0.63 µg/m3 87.06 µg/m3 2.56 µg/m3 N/A 0.18 mg/m3 10.96 °C 59.86 % 3.67 m/s 193.69 Deg 0.03 µg/m3
2022-01-23 22:00 2.83 µg/m3 0.67 µg/m3 88.78 µg/m3 2.4 µg/m3 N/A 0.18 mg/m3 11.45 °C 59.13 % 4.41 m/s 221.07 Deg 0.03 µg/m3
2022-01-23 21:00 1.34 µg/m3 0.48 µg/m3 91.69 µg/m3 2.94 µg/m3 N/A 0.18 mg/m3 11.48 °C 58.85 % 3.16 m/s 285.55 Deg 0.02 µg/m3
2022-01-23 20:00 1.59 µg/m3 0.53 µg/m3 92.25 µg/m3 2.33 µg/m3 N/A 0.18 mg/m3 11.46 °C 59.11 % 4.06 m/s 268.35 Deg 0.02 µg/m3
2022-01-23 19:00 1.5 µg/m3 0.52 µg/m3 91.92 µg/m3 1.95 µg/m3 N/A 0.17 mg/m3 11.45 °C 59.49 % 4.02 m/s 193.09 Deg 0.02 µg/m3
2022-01-23 18:00 1.05 µg/m3 0.47 µg/m3 90.9 µg/m3 2.1 µg/m3 N/A 0.17 mg/m3 11.17 °C 57.99 % 3.61 m/s 266.73 Deg 0.02 µg/m3
2022-01-23 17:00 0.87 µg/m3 0.55 µg/m3 89.97 µg/m3 1.06 µg/m3 N/A 0.17 mg/m3 11.41 °C 58.28 % 4.68 m/s 243.22 Deg 0.05 µg/m3
2022-01-23 16:00 1.75 µg/m3 0.55 µg/m3 90.82 µg/m3 2.54 µg/m3 N/A 0.18 mg/m3 11.45 °C 64.78 % 4.92 m/s 299.61 Deg 0.14 µg/m3
2022-01-23 15:00 1.87 µg/m3 0.55 µg/m3 89.52 µg/m3 1.54 µg/m3 N/A 0.18 mg/m3 11.65 °C 65.55 % 4.87 m/s 247.63 Deg 0.22 µg/m3
2022-01-23 14:00 1.83 µg/m3 0.59 µg/m3 88.52 µg/m3 0.63 µg/m3 N/A 0.17 mg/m3 11.73 °C 62.88 % 4.37 m/s 272.75 Deg 0.3 µg/m3
2022-01-23 13:00 1.25 µg/m3 0.54 µg/m3 87.9 µg/m3 0.1 µg/m3 N/A 0.17 mg/m3 11.53 °C 59.72 % 3.95 m/s 263.66 Deg 0.17 µg/m3
2022-01-23 12:00 1.3 µg/m3 0.74 µg/m3 85.71 µg/m3 1.31 µg/m3 N/A 0.16 mg/m3 11.82 °C 53.13 % 3.79 m/s 292.26 Deg 0.19 µg/m3
2022-01-23 11:00 1.51 µg/m3 0.84 µg/m3 81.02 µg/m3 1.49 µg/m3 N/A 0.17 mg/m3 11.72 °C 57.02 % 3.65 m/s 304.62 Deg 0.24 µg/m3
2022-01-23 10:00 4.67 µg/m3 0.86 µg/m3 74.07 µg/m3 2.19 µg/m3 N/A 0.17 mg/m3 11.32 °C 59.56 % 4.39 m/s 218.74 Deg 0.9 µg/m3
2022-01-23 09:00 2.78 µg/m3 1.29 µg/m3 75.05 µg/m3 2.14 µg/m3 N/A 0.17 mg/m3 10.61 °C 57.89 % 4.28 m/s 303.83 Deg 0.31 µg/m3
2022-01-23 08:00 3.08 µg/m3 1.16 µg/m3 76.18 µg/m3 2.22 µg/m3 N/A 0.17 mg/m3 9.83 °C 59.49 % 4.44 m/s 94.45 Deg 0.16 µg/m3
2022-01-23 07:00 2.11 µg/m3 1.27 µg/m3 78.72 µg/m3 1.95 µg/m3 N/A 0.17 mg/m3 9.73 °C 58.58 % 4.97 m/s 102.09 Deg 0.08 µg/m3
2022-01-23 06:00 2.66 µg/m3 1.46 µg/m3 79.06 µg/m3 2.27 µg/m3 N/A 0.17 mg/m3 9.97 °C 58.58 % 5.62 m/s 79.13 Deg 0.05 µg/m3
2022-01-23 05:00 3.6 µg/m3 1.03 µg/m3 74.47 µg/m3 4.04 µg/m3 N/A 0.19 mg/m3 10.34 °C 67.95 % 4.55 m/s 35.95 Deg 0.05 µg/m3
2022-01-23 04:00 2.24 µg/m3 0.97 µg/m3 77.09 µg/m3 4.39 µg/m3 N/A 0.16 mg/m3 10.14 °C 70.63 % 3.14 m/s 124.11 Deg 0.05 µg/m3
2022-01-23 03:00 3.56 µg/m3 0.79 µg/m3 80.57 µg/m3 3.56 µg/m3 N/A 0.19 mg/m3 10.38 °C 73.92 % 6.27 m/s 58.61 Deg 0.05 µg/m3
2022-01-23 02:00 2.23 µg/m3 0.54 µg/m3 77.6 µg/m3 3.55 µg/m3 N/A 0.2 mg/m3 10.23 °C 77.92 % 5.38 m/s 70.4 Deg 0.05 µg/m3
2022-01-23 01:00 1.69 µg/m3 0.49 µg/m3 79.72 µg/m3 4.25 µg/m3 N/A 0.2 mg/m3 9.86 °C 78.12 % 5.2 m/s 42.84 Deg 0.04 µg/m3
2022-01-23 00:00 3.99 µg/m3 0.5 µg/m3 74.42 µg/m3 4.17 µg/m3 N/A 0.22 mg/m3 9.95 °C 84.72 % 4.54 m/s 100.03 Deg 0.05 µg/m3
2022-01-22 23:00 4.09 µg/m3 0.53 µg/m3 75.04 µg/m3 4.46 µg/m3 N/A 0.23 mg/m3 11.02 °C 79.85 % 2.01 m/s 139.54 Deg 0.06 µg/m3
2022-01-22 22:00 4.02 µg/m3 0.47 µg/m3 78.06 µg/m3 2.43 µg/m3 N/A 0.24 mg/m3 11.08 °C 76.13 % 1.72 m/s 201.63 Deg 0.05 µg/m3
2022-01-22 21:00 2.81 µg/m3 0.44 µg/m3 84.15 µg/m3 2.22 µg/m3 N/A 0.19 mg/m3 11.18 °C 73.9 % 1.38 m/s 40.35 Deg 0.04 µg/m3
2022-01-22 20:00 4.35 µg/m3 0.51 µg/m3 81.73 µg/m3 2.38 µg/m3 N/A 0.18 mg/m3 11.08 °C 74.44 % 1.32 m/s 103.92 Deg 0.02 µg/m3
2022-01-22 19:00 4.84 µg/m3 0.45 µg/m3 76.25 µg/m3 3.5 µg/m3 N/A 0.19 mg/m3 10.95 °C 77.35 % 2.38 m/s 169.63 Deg 0.03 µg/m3
2022-01-22 18:00 4.59 µg/m3 0.48 µg/m3 74.8 µg/m3 2.45 µg/m3 N/A 0.18 mg/m3 10.97 °C 78.42 % 1.99 m/s 170.67 Deg 0.05 µg/m3
2022-01-22 17:00 2.44 µg/m3 0.44 µg/m3 74.93 µg/m3 1.63 µg/m3 N/A 0.18 mg/m3 11.48 °C 77.48 % 2.27 m/s 144.36 Deg 0.14 µg/m3
2022-01-22 16:00 1.2 µg/m3 0.43 µg/m3 80.67 µg/m3 3.63 µg/m3 N/A 0.18 mg/m3 11.79 °C 76.73 % 2.39 m/s 226.27 Deg 0.1 µg/m3
2022-01-22 15:00 -2.04 µg/m3 0.51 µg/m3 81.6 µg/m3 3.42 µg/m3 N/A 0.18 mg/m3 12.04 °C 74.62 % 3.09 m/s 214.88 Deg 5.33 µg/m3
2022-01-22 14:00 1.37 µg/m3 0.5 µg/m3 83.45 µg/m3 4.55 µg/m3 N/A 0.18 mg/m3 12.34 °C 73.79 % 3.51 m/s 310.48 Deg 0.19 µg/m3
2022-01-22 13:00 1.43 µg/m3 0.45 µg/m3 81.84 µg/m3 4.93 µg/m3 N/A 0.19 mg/m3 12.7 °C 72.99 % 3.95 m/s 204.77 Deg 0.24 µg/m3
2022-01-22 12:00 1.47 µg/m3 0.48 µg/m3 82.88 µg/m3 4.23 µg/m3 N/A 0.18 mg/m3 12.75 °C 69.77 % 4.17 m/s 229.59 Deg 0.24 µg/m3
2022-01-22 11:00 2.57 µg/m3 0.49 µg/m3 83.4 µg/m3 7.31 µg/m3 N/A 0.18 mg/m3 12.51 °C 66.93 % 5.4 m/s 279.78 Deg 0.49 µg/m3
2022-01-22 10:00 1.29 µg/m3 0.46 µg/m3 83.96 µg/m3 6.55 µg/m3 N/A 0.18 mg/m3 12.09 °C 70.05 % 6.03 m/s 265.57 Deg 0.15 µg/m3
2022-01-22 09:00 2.07 µg/m3 0.45 µg/m3 84.15 µg/m3 7.02 µg/m3 N/A 0.18 mg/m3 11.71 °C 71.87 % 7.1 m/s 263.57 Deg 0.15 µg/m3
2022-01-22 08:00 2.06 µg/m3 0.43 µg/m3 85.08 µg/m3 8.25 µg/m3 N/A 0.18 mg/m3 11.58 °C 73.32 % 7.15 m/s 296.07 Deg 0.06 µg/m3
2022-01-22 07:00 2 µg/m3 0.45 µg/m3 86.23 µg/m3 9.11 µg/m3 N/A 0.18 mg/m3 11.78 °C 69.27 % 8.26 m/s 315.06 Deg 0.03 µg/m3
2022-01-22 06:00 1.36 µg/m3 0.46 µg/m3 86.93 µg/m3 7.73 µg/m3 N/A 0.18 mg/m3 11.78 °C 70.04 % 8.26 m/s 301.02 Deg 0.02 µg/m3
2022-01-22 05:00 0.87 µg/m3 0.43 µg/m3 87.06 µg/m3 5.91 µg/m3 N/A 0.18 mg/m3 11.39 °C 71.91 % 7.02 m/s 278.03 Deg 0.02 µg/m3
2022-01-22 04:00 1.3 µg/m3 0.48 µg/m3 87.25 µg/m3 7.63 µg/m3 N/A 0.15 mg/m3 11.44 °C 70.07 % 7.55 m/s 278.31 Deg 0.03 µg/m3
2022-01-22 03:00 1.19 µg/m3 0.43 µg/m3 88.17 µg/m3 7.2 µg/m3 N/A 0.15 mg/m3 11.9 °C 63.71 % 7.76 m/s 239.73 Deg 0.03 µg/m3
2022-01-22 02:00 1.47 µg/m3 0.4 µg/m3 86.92 µg/m3 7.82 µg/m3 N/A 0.16 mg/m3 11 °C 77.47 % 6.78 m/s 290.44 Deg 0.03 µg/m3
2022-01-22 01:00 1.54 µg/m3 0.47 µg/m3 85.6 µg/m3 6.34 µg/m3 N/A 0.16 mg/m3 12.05 °C 71.78 % 7.28 m/s 272.44 Deg 0.03 µg/m3
2022-01-22 00:00 2.33 µg/m3 0.41 µg/m3 84.78 µg/m3 5.14 µg/m3 N/A 0.16 mg/m3 11.71 °C 72.72 % 6.59 m/s 251.08 Deg 0.02 µg/m3
2022-01-21 23:00 1.49 µg/m3 0.41 µg/m3 86.2 µg/m3 6.27 µg/m3 N/A 0.16 mg/m3 11.58 °C 75.46 % 6.58 m/s 296 Deg 0.02 µg/m3
2022-01-21 22:00 1.19 µg/m3 0.45 µg/m3 86.56 µg/m3 6.88 µg/m3 N/A 0.16 mg/m3 12.06 °C 71.22 % 6.09 m/s 288.81 Deg 0.03 µg/m3
2022-01-21 21:00 1.47 µg/m3 0.43 µg/m3 86.12 µg/m3 4.89 µg/m3 N/A 0.16 mg/m3 12.11 °C 71.48 % 6 m/s 284.88 Deg 0.03 µg/m3
2022-01-21 20:00 1.53 µg/m3 0.43 µg/m3 88.07 µg/m3 3.44 µg/m3 N/A 0.16 mg/m3 12.2 °C 72.21 % 5.9 m/s 237.22 Deg 0.03 µg/m3
2022-01-21 19:00 1.17 µg/m3 0.45 µg/m3 91.23 µg/m3 3.52 µg/m3 N/A 0.15 mg/m3 12.27 °C 71.88 % 6.12 m/s 242.61 Deg 0.02 µg/m3
2022-01-21 18:00 0.69 µg/m3 0.41 µg/m3 91.75 µg/m3 3.58 µg/m3 N/A 0.15 mg/m3 12.13 °C 72.9 % 5.95 m/s 239.92 Deg 0.03 µg/m3
2022-01-21 17:00 0.81 µg/m3 0.4 µg/m3 95.23 µg/m3 3.9 µg/m3 N/A 0.15 mg/m3 12.41 °C 69.24 % 6.92 m/s 233.01 Deg 0.04 µg/m3
2022-01-21 16:00 0.7 µg/m3 0.45 µg/m3 96.44 µg/m3 4.44 µg/m3 N/A 0.14 mg/m3 12.7 °C 65.91 % 7.61 m/s 179.03 Deg 0.07 µg/m3
2022-01-21 15:00 0.78 µg/m3 0.46 µg/m3 93.22 µg/m3 5.06 µg/m3 N/A 0.15 mg/m3 12.82 °C 70.69 % 7.39 m/s 238.83 Deg 0.08 µg/m3
2022-01-21 14:00 0.91 µg/m3 0.5 µg/m3 94.82 µg/m3 4.55 µg/m3 N/A 0.15 mg/m3 13.03 °C 68.63 % 7.36 m/s 233.38 Deg 0.1 µg/m3
2022-01-21 13:00 1.35 µg/m3 0.51 µg/m3 93.61 µg/m3 5.43 µg/m3 N/A 0.15 mg/m3 13 °C 68.41 % 7.03 m/s 233.57 Deg 0.18 µg/m3
2022-01-21 12:00 0.97 µg/m3 0.53 µg/m3 92.36 µg/m3 5.27 µg/m3 N/A 0.15 mg/m3 13.02 °C 66.23 % 6.79 m/s 218.95 Deg 0.11 µg/m3
2022-01-21 11:00 0.91 µg/m3 0.56 µg/m3 91.78 µg/m3 4.57 µg/m3 N/A 0.15 mg/m3 12.99 °C 68.42 % 6.34 m/s 185.7 Deg 0.1 µg/m3
2022-01-21 10:00 1.15 µg/m3 0.58 µg/m3 92.03 µg/m3 5.59 µg/m3 N/A 0.15 mg/m3 12.75 °C 67.97 % 6.13 m/s 207.68 Deg 0.12 µg/m3
2022-01-21 09:00 1.36 µg/m3 0.61 µg/m3 90.6 µg/m3 3.74 µg/m3 N/A 0.15 mg/m3 12.45 °C 66.93 % 5.38 m/s 164.09 Deg 0.09 µg/m3
2022-01-21 08:00 1.65 µg/m3 0.58 µg/m3 91.53 µg/m3 5.43 µg/m3 N/A 0.15 mg/m3 12.02 °C 63.9 % 4.18 m/s 243.26 Deg 0.06 µg/m3
2022-01-21 07:00 1.72 µg/m3 0.69 µg/m3 96.15 µg/m3 6.67 µg/m3 N/A 0.17 mg/m3 11.93 °C 69.32 % 4.38 m/s 268.93 Deg 0.03 µg/m3
2022-01-21 06:00 2.06 µg/m3 0.82 µg/m3 101.71 µg/m3 6.72 µg/m3 N/A 0.19 mg/m3 11.85 °C 68.68 % 4.84 m/s 251.96 Deg 0.03 µg/m3
2022-01-21 05:00 2.19 µg/m3 1.3 µg/m3 103.58 µg/m3 8.17 µg/m3 N/A 0.19 mg/m3 11.81 °C 65.1 % 4.46 m/s 217.09 Deg 0.02 µg/m3
2022-01-21 04:00 2.08 µg/m3 2.23 µg/m3 111.24 µg/m3 7.85 µg/m3 N/A 0.17 mg/m3 11.75 °C 69.37 % 5.47 m/s 221.79 Deg 0.03 µg/m3
2022-01-21 03:00 1.59 µg/m3 11.43 µg/m3 109.26 µg/m3 7.06 µg/m3 N/A 0.18 mg/m3 11.66 °C 71.07 % 5.39 m/s 227.82 Deg 0.02 µg/m3
2022-01-21 02:00 1.36 µg/m3 6.09 µg/m3 105.97 µg/m3 7.5 µg/m3 N/A 0.16 mg/m3 11.67 °C 69.38 % 5.95 m/s 257.19 Deg 0.03 µg/m3
2022-01-21 01:00 1.2 µg/m3 3.13 µg/m3 105.89 µg/m3 6.18 µg/m3 N/A 0.16 mg/m3 11.77 °C 70.28 % 5.81 m/s 223.08 Deg 0.02 µg/m3
2022-01-21 00:00 0.99 µg/m3 3.89 µg/m3 102.97 µg/m3 5.29 µg/m3 N/A 0.16 mg/m3 11.95 °C 70.42 % 6.43 m/s 230.09 Deg 0.03 µg/m3
2022-01-20 23:00 1.28 µg/m3 2.44 µg/m3 98.65 µg/m3 6.31 µg/m3 N/A 0.16 mg/m3 12.22 °C 73.71 % 6.31 m/s 223.06 Deg 0.02 µg/m3
2022-01-20 22:00 1.01 µg/m3 1.64 µg/m3 98.7 µg/m3 6.01 µg/m3 N/A 0.16 mg/m3 12.26 °C 73.05 % 4.01 m/s 237.86 Deg 0.03 µg/m3
2022-01-20 21:00 1.08 µg/m3 1.5 µg/m3 100.32 µg/m3 5.81 µg/m3 N/A 0.16 mg/m3 12.19 °C 72.3 % 4.39 m/s 206.26 Deg 0.03 µg/m3
2022-01-20 20:00 1.02 µg/m3 1.34 µg/m3 99.33 µg/m3 4.81 µg/m3 N/A 0.16 mg/m3 12.09 °C 70.53 % 4.44 m/s 229.68 Deg 0.02 µg/m3
2022-01-20 19:00 1.05 µg/m3 1.56 µg/m3 99.41 µg/m3 4.31 µg/m3 N/A 0.16 mg/m3 12.18 °C 69.27 % 4.69 m/s 249.63 Deg 0.03 µg/m3
2022-01-20 18:00 0.86 µg/m3 0.82 µg/m3 98.38 µg/m3 3.24 µg/m3 N/A 0.16 mg/m3 12.31 °C 73.24 % 4.51 m/s 228.85 Deg 0.02 µg/m3
2022-01-20 17:00 0.73 µg/m3 0.52 µg/m3 92.27 µg/m3 3.64 µg/m3 N/A 0.15 mg/m3 12.65 °C 74.72 % 4.12 m/s 189.47 Deg 0.04 µg/m3
2022-01-20 16:00 0.83 µg/m3 0.63 µg/m3 91.09 µg/m3 5.38 µg/m3 N/A 0.15 mg/m3 12.71 °C 72.96 % 2.92 m/s 222.35 Deg 0.05 µg/m3
2022-01-20 15:00 0.97 µg/m3 0.69 µg/m3 92.92 µg/m3 5.86 µg/m3 N/A 0.15 mg/m3 12.85 °C 71.3 % 2.47 m/s 186.25 Deg 0.06 µg/m3
2022-01-20 14:00 0.98 µg/m3 0.62 µg/m3 92.65 µg/m3 3.9 µg/m3 N/A 0.15 mg/m3 13.04 °C 71.5 % 2.54 m/s 151.95 Deg 0.09 µg/m3
2022-01-20 13:00 0.96 µg/m3 0.57 µg/m3 90.69 µg/m3 3.1 µg/m3 N/A 0.15 mg/m3 12.92 °C 70.03 % 2.02 m/s 236.19 Deg 0.07 µg/m3
2022-01-20 12:00 0.86 µg/m3 0.57 µg/m3 90.14 µg/m3 3.31 µg/m3 N/A 0.15 mg/m3 12.7 °C 71.93 % 2.05 m/s 174.42 Deg 0.06 µg/m3
2022-01-20 11:00 0.89 µg/m3 0.5 µg/m3 87.38 µg/m3 4.34 µg/m3 N/A 0.15 mg/m3 12.69 °C 75.5 % 1.75 m/s 263.6 Deg 0.09 µg/m3
2022-01-20 10:00 0.89 µg/m3 0.47 µg/m3 87.76 µg/m3 3.36 µg/m3 N/A 0.15 mg/m3 12.89 °C 74.53 % 2.06 m/s 208.72 Deg 0.12 µg/m3
2022-01-20 09:00 0.51 µg/m3 0.43 µg/m3 88.28 µg/m3 2.97 µg/m3 N/A 0.15 mg/m3 12.49 °C 72.67 % 2.78 m/s 216.66 Deg 0.05 µg/m3
2022-01-20 08:00 0.63 µg/m3 0.44 µg/m3 89.84 µg/m3 3.56 µg/m3 N/A 0.15 mg/m3 11.98 °C 74.84 % 2.7 m/s 208.39 Deg 0.03 µg/m3
2022-01-20 07:00 2.09 µg/m3 0.52 µg/m3 93.03 µg/m3 3.56 µg/m3 N/A 0.15 mg/m3 11.98 °C 74.26 % 1.05 m/s 198.97 Deg 0.03 µg/m3
2022-01-20 06:00 1.57 µg/m3 0.45 µg/m3 96.39 µg/m3 4.03 µg/m3 N/A 0.15 mg/m3 12.06 °C 74.72 % 0.83 m/s 212.23 Deg 0.02 µg/m3
2022-01-20 05:00 0.61 µg/m3 0.46 µg/m3 96.88 µg/m3 4.24 µg/m3 N/A 0.16 mg/m3 12.02 °C 75.05 % 1.18 m/s 259.63 Deg 0.02 µg/m3
2022-01-20 04:00 0.62 µg/m3 0.5 µg/m3 97.76 µg/m3 3.93 µg/m3 N/A 0.13 mg/m3 12.1 °C 75.28 % 0.96 m/s 241.5 Deg 0.02 µg/m3
2022-01-20 03:00 0.74 µg/m3 0.51 µg/m3 97.9 µg/m3 4.01 µg/m3 N/A 0.13 mg/m3 12.21 °C 76.07 % 0.8 m/s 266.74 Deg 0.02 µg/m3
2022-01-20 02:00 0.86 µg/m3 0.45 µg/m3 94.18 µg/m3 3.36 µg/m3 N/A 0.14 mg/m3 12.08 °C 79.33 % 1.15 m/s 282.93 Deg 0.03 µg/m3
2022-01-20 01:00 0.81 µg/m3 0.44 µg/m3 91.66 µg/m3 3.55 µg/m3 N/A 0.14 mg/m3 11.94 °C 81.8 % 0.89 m/s 226.76 Deg 0.04 µg/m3
2022-01-20 00:00 0.9 µg/m3 0.45 µg/m3 87.79 µg/m3 3.69 µg/m3 N/A 0.16 mg/m3 12.12 °C 82 % 2.09 m/s 169.28 Deg 0.03 µg/m3
2022-01-19 23:00 0.98 µg/m3 0.44 µg/m3 90.01 µg/m3 3.69 µg/m3 N/A 0.16 mg/m3 12.09 °C 82.04 % 3.06 m/s 161.2 Deg 0.03 µg/m3
2022-01-19 22:00 1.63 µg/m3 0.42 µg/m3 86.62 µg/m3 4.36 µg/m3 N/A 0.17 mg/m3 12.1 °C 82.4 % 2.72 m/s 157.07 Deg 0.04 µg/m3
2022-01-19 21:00 2.79 µg/m3 0.51 µg/m3 85.45 µg/m3 6.5 µg/m3 N/A 0.17 mg/m3 12.03 °C 80.93 % 2.95 m/s 158.35 Deg 0.04 µg/m3
2022-01-19 20:00 8.03 µg/m3 0.57 µg/m3 79.4 µg/m3 11.83 µg/m3 N/A 0.2 mg/m3 11.85 °C 81.78 % 3.58 m/s 143.64 Deg 0.07 µg/m3
2022-01-19 19:00 19.95 µg/m3 0.57 µg/m3 68.44 µg/m3 10.09 µg/m3 N/A 0.27 mg/m3 12.27 °C 75.85 % 2.27 m/s 115.62 Deg 0.11 µg/m3
2022-01-19 18:00 3.84 µg/m3 0.55 µg/m3 82.4 µg/m3 8.41 µg/m3 N/A 0.16 mg/m3 12.43 °C 74.1 % 2.41 m/s 172.15 Deg 0.04 µg/m3
2022-01-19 17:00 5.63 µg/m3 0.58 µg/m3 82.97 µg/m3 7.07 µg/m3 N/A 0.18 mg/m3 12.79 °C 74.33 % 2.49 m/s 114.51 Deg 0.15 µg/m3
2022-01-19 16:00 4.14 µg/m3 0.63 µg/m3 85.75 µg/m3 8.22 µg/m3 N/A 0.17 mg/m3 12.91 °C 74.15 % 2.54 m/s 112.79 Deg 0.19 µg/m3
2022-01-19 15:00 6.27 µg/m3 0.71 µg/m3 84.56 µg/m3 8.16 µg/m3 N/A 0.18 mg/m3 13.18 °C 71.85 % 2.43 m/s 96.75 Deg 0.64 µg/m3
2022-01-19 14:00 9.45 µg/m3 0.8 µg/m3 78.96 µg/m3 6.58 µg/m3 N/A 0.19 mg/m3 13.41 °C 73.67 % 2.25 m/s 127.94 Deg 1.5 µg/m3
2022-01-19 13:00 6.65 µg/m3 0.75 µg/m3 80.05 µg/m3 5.06 µg/m3 N/A 0.19 mg/m3 13.12 °C 75.14 % 2.03 m/s 166.92 Deg 1.16 µg/m3
2022-01-19 12:00 2.55 µg/m3 0.66 µg/m3 83.08 µg/m3 6.37 µg/m3 N/A 0.18 mg/m3 12.16 °C 82.23 % 2.98 m/s 242.99 Deg 0.39 µg/m3
2022-01-19 11:00 3.63 µg/m3 0.6 µg/m3 75.45 µg/m3 7.95 µg/m3 N/A 0.19 mg/m3 11.22 °C 87.64 % 3.59 m/s 103.08 Deg 0.32 µg/m3
2022-01-19 10:00 11.58 µg/m3 0.63 µg/m3 62.91 µg/m3 10.1 µg/m3 N/A 0.22 mg/m3 11.76 °C 81.17 % 2.32 m/s 175.88 Deg 0.87 µg/m3
2022-01-19 09:00 17.76 µg/m3 0.63 µg/m3 60.15 µg/m3 8.25 µg/m3 N/A 0.24 mg/m3 11.4 °C 80.82 % 2.43 m/s 115.37 Deg 1.37 µg/m3
2022-01-19 08:00 N/A 0.59 µg/m3 76.41 µg/m3 N/A N/A N/A 11.43 °C 78.23 % 2.04 m/s 127.74 Deg N/A
2022-01-19 07:00 N/A 0.52 µg/m3 80.8 µg/m3 N/A N/A N/A 11.81 °C 73.06 % 1.96 m/s 111.73 Deg N/A
2022-01-19 06:00 N/A 0.52 µg/m3 85.19 µg/m3 N/A N/A N/A 12.13 °C 70.64 % 1.9 m/s 39.36 Deg N/A
2022-01-19 05:00 N/A 0.55 µg/m3 85.76 µg/m3 N/A N/A N/A 11.98 °C 70.61 % 1.78 m/s 102.43 Deg N/A
2022-01-19 04:00 N/A 0.64 µg/m3 86.34 µg/m3 N/A N/A N/A 11.89 °C 71.14 % 1.42 m/s 25.28 Deg N/A
2022-01-19 03:00 N/A 0.72 µg/m3 87.74 µg/m3 N/A N/A N/A 12.09 °C 69.98 % 1.19 m/s 18.02 Deg N/A
2022-01-19 02:00 N/A 0.76 µg/m3 89.39 µg/m3 N/A N/A N/A 12.17 °C 68.86 % 0.67 m/s 189.73 Deg N/A
2022-01-19 01:00 N/A 0.47 µg/m3 93.14 µg/m3 N/A N/A N/A 12.22 °C 68.11 % 0.11 m/s 320.95 Deg N/A
2022-01-19 00:00 N/A 0.44 µg/m3 89.13 µg/m3 N/A N/A N/A 12.18 °C 67.52 % 0.24 m/s 116.09 Deg N/A
2022-01-18 23:00 N/A 0.34 µg/m3 92.82 µg/m3 N/A N/A N/A 12.3 °C 66.37 % 0.69 m/s 224.62 Deg N/A
2022-01-18 22:00 N/A N/A N/A N/A N/A N/A 12.27 °C 66.4 % 0.9 m/s 185.66 Deg N/A
2022-01-18 21:00 N/A N/A N/A N/A N/A N/A 12.27 °C 66.01 % 0.93 m/s 255.73 Deg N/A
2022-01-18 20:00 N/A N/A N/A N/A N/A N/A 12.33 °C 66.04 % 1.61 m/s 292.73 Deg N/A
2022-01-18 19:00 N/A N/A N/A N/A N/A N/A 12.22 °C 67.01 % 1.71 m/s 295.02 Deg N/A
2022-01-18 18:00 N/A N/A N/A N/A N/A N/A 12.22 °C 68.74 % 2.31 m/s 218.14 Deg N/A
2022-01-18 17:00 N/A N/A N/A N/A N/A N/A 12.28 °C 70.69 % 2.69 m/s 356.44 Deg N/A

It is to be noted that the data is provisional and subject to quality assurance procedures. For validated data kindly refer your request to contact.air@era.org.mt